SITRO-AIS 27

Last updated on Mon Jun 22 2026 00:03:49 GMT+0000 (Coordinated Universal Time)

1 59068U 24039T 26172.50106348 .00001695 00000+0 13393-3 0 9993 2 59068 95.3907 238.2277 0142402 312.6928 46.2373 14.93745642125387
UTC large
Height (km)
Speed (km/s)
/
Latitude / Longitude
Inclination (degrees)
Orbital Period (minutes)
Azimuth
Elevation
Range (km)
Doppler Factor

Next 0 passes for location: London (51.5072 / 0.1276)

No passes found over London.
SITRO-AIS 27